Location: Eschertshofen
(49.3064°N, 11.5756°E)
Time: 22:44:41
(UTC+00:00)

Terra - Pass Details

Date: 18 September 2020
Orbit: 701 x 703 km, 98.2° (Epoch: 22 October)

Event Time Altitude Azimuth Distance (km) Brightness Sun altitude
Exits shadow 20:19:10 28° 30° (NNE) 1,300 3.2 -27.7°
Drops below altitude 10° 20:22:01 10° 1° (N) 2,183 4.8 -28.0°
Sets 20:24:25 0° 353° (N) 3,105 5.8 -28.3°
